SES-20

Last updated on Thu Mar 05 2026 00:03:00 GMT+0000 (Coordinated Universal Time)

1 53960U 22123A 26063.35669706 -.00000113 00000+0 00000+0 0 9996 2 53960 0.0144 110.7976 0001366 302.1157 134.4833 1.00275989 12482
UTC large
Height (km)
Speed (km/s)
/
Latitude / Longitude
Inclination (degrees)
Orbital Period (minutes)
Azimuth
Elevation
Range (km)
Doppler Factor

Next 0 passes for location: London (51.5072 / 0.1276)

Sorry there are no passes over London.